Regional Weather Roundup
Issued by NWS

Home | Current Version | Previous Version | Graphics & Text | Print | Product List | Glossary On
Versions: 1 2 3 4 5 6 7 8 9 10 11 12 13 14 15 16 17 18 19 20 21 22 23 24 25 26 27 28 29 30 31 32 33 34 35 36 37 38 39 40 41 42 43 44 45 46 47 48 49 50
000
ASUS43 KLOT 020808
RWRIL

ILLINOIS REGIONAL WEATHER ROUNDUP
NATIONAL WEATHER SERVICE CHICAGO/ROMEOVILLE IL
300 AM CDT TUE JUN 02 2015

NOTE: "FAIR" INDICATES FEW OR NO CLOUDS BELOW 12,000 FEET WITH NO
SIGNIFICANT WEATHER AND/OR OBSTRUCTIONS TO VISIBILITY.

* THESE STATIONS ARE NOT UNDER NWS QUALITY CONTROL. THEY ALSO MAY NOT
  REPORT WEATHER SUCH AS PRECIPITATION OR FOG.

ILZ001-002-007-009-015-016-024-020900-
NORTHWEST ILLINOIS

CITY           SKY/WX    TMP DP  RH WIND       PRES   REMARKS
MOLINE         MOCLDY    51  47  86 E6        30.17R
STERLING*      CLEAR     46  39  76 CALM      30.19R
SAVANNA*       CLEAR     49  41  73 E5        30.19S
$$

ILZ003-004-008-010-011-017-018-020900-
NORTH CENTRAL ILLINOIS

CITY           SKY/WX    TMP DP  RH WIND       PRES   REMARKS
ROCKFORD       PTCLDY    46  37  71 CALM      30.21S
FREEPORT*      CLEAR     41  36  82 CALM      30.21R
ROCHELLE*      CLEAR     44  38  77 E5        30.19R
DE KALB*       CLEAR     43  36  76 N3        30.19S
PERU*          CLEAR     48  38  70 NE6       30.19R
$$

ILZ005-006-012>014-019>023-020900-
NORTHEAST ILLINOIS

CITY           SKY/WX    TMP DP  RH WIND       PRES   REMARKS
CHICAGO-OHARE  CLEAR     43  38  82 N3        30.17S
CHICAGO-MIDWAY PTCLDY    48  39  71 CALM      30.17S
AURORA         CLEAR     45  36  70 CALM      30.18S
LANSING*       CLEAR     42  38  88 CALM      30.18S
JOLIET*        CLEAR     44  40  85 CALM      30.18R
WAUKEGAN       CLEAR     42  38  85 N5        30.18F
DUPAGE AIRPORT CLEAR     42  36  79 N5        30.17S
KANKAKEE*      CLEAR     44  42  90 CALM      30.18R
WHEELING       CLEAR     43  37  79 N3        30.20S
MORRIS*        PTCLDY    46  38  76 CALM      30.16R
ROMEOVILLE*    CLEAR     43  38  83 CALM      30.17S
NORTHERLY ISL    N/A     48  42  80 N3          N/A
$$

LMZ740>746-020900-
SOUTHERN LAKE MICHIGAN

STATION/POSITION SKY/WX   TEMP    WIND        PRES    VSBY  WAVE
                          AIR SEA DIR/SP/G                  HT/PER
                          (F)     (DEG/KT/KT) (MB)    (MI)  (FT/S)
SOUTHERN BUOY              44 38   60/  8/  8 1022.8R         1/ 4
HARRISON CRIB              49     350/  7/  8   N/A
BURNHAM HARBOR             48     360/  5/  7   N/A
CALUMET HARBOR             48     360/  3/  4   N/A
BURNS HARBOR                       90/  2/  4 1022.4S
MICHIGAN CITY              48     120/  2/  4   N/A
MICHIGAN CITY 6N           51 56   CALM  /  2   N/A           2/ 5
ST. JOSEPH                 53 55  150/ 10/ 12   N/A           1/ 4
$$

ILZ025>027-034>036-040-047-049-050-058-095>099-020900-
WEST-CENTRAL ILLINOIS

CITY           SKY/WX    TMP DP  RH WIND       PRES   REMARKS
QUINCY         CLEAR     55  53  93 E5        30.14R
GALESBURG*     CLEAR     53  49  88 E5        30.16S
MACOMB*        CLEAR     49  49  99 E6        30.18R
JACKSONVILLE*  CLEAR     55  52  90 NE7       30.14S
PITTSFIELD*    CLOUDY    55  53  91 CALM      30.15R
$$

ILZ028>032-037-038-041>044-048-051>054-059>061-020900-
CENTRAL ILLINOIS

CITY           SKY/WX    TMP DP  RH WIND       PRES   REMARKS
PONTIAC        CLOUDY    51  45  80 CALM      30.18S
BLOOMINGTON    CLOUDY    52  47  83 E8        30.18R
DECATUR        CLEAR     52  50  93 NE6       30.14S FOG
PEORIA         CLEAR     53  44  71 E8        30.17R
LACON*         CLEAR     47  42  80 CALM      30.18R
LINCOLN*       CLOUDY    54  51  90 NE5       30.15R
SPRINGFIELD    MOCLDY    55  52  89 E5        30.15R
TAYLORVILLE    CLEAR     54  52  94 CALM      30.14R
$$

ILZ033-039-045-046-055>057-062-063-020900-
EAST-CENTRAL ILLINOIS

CITY           SKY/WX    TMP DP  RH WIND       PRES   REMARKS
CHAMPAIGN      CLEAR     53  51  93 E7        30.15S
DANVILLE*      CLEAR     51  50  95 NE3       30.13S
RANTOUL*       CLOUDY    55  51  86 NE3       30.16R
MATTOON        CLEAR     52  50  93 NE6       30.12S
PARIS*         CLEAR     52  50  93 NE5       30.14F
$$

ILZ079-100>102-020900-
SOUTHWEST ILLINOIS

CITY           SKY/WX    TMP DP  RH WIND       PRES   REMARKS
ALTON          MOCLDY    58  58 100 CALM      30.12S
BELLEVILLE     MOCLDY    55  55 100 CALM      30.10S
CAHOKIA*       MOCLDY    58  55  90 CALM      30.11F
SPARTA*        CLOUDY    58  55  90 E3        30.11F
$$

ILZ064>066-069>071-074>076-080>082-084>086-088>090-092>094-020900-
SOUTH-CENTRAL ILLINOIS

CITY           SKY/WX    TMP DP  RH WIND       PRES   REMARKS
CARBONDALE     CLOUDY    59  54  83 NE3       30.10S
CAIRO*         CLOUDY    60  57  89 N5        30.09S
EFFINGHAM*     CLEAR     54  51  91 CALM      30.13S FOG
MARION         CLOUDY    59  55  88 CALM      30.10S
MT. VERNON     CLOUDY    59  52  77 NE6       30.11S
CENTRALIA*     CLOUDY    59  51  74 E9        30.11S
SALEM*         CLOUDY    61  55  81 E3        30.12R
$$

ILZ067-068-072-073-078-083-087-091-020900-
SOUTHEAST ILLINOIS

CITY           SKY/WX    TMP DP  RH WIND       PRES   REMARKS
LAWRENCEVILLE  CLOUDY    58  52  80 NE8       30.12F
FLORA*         CLOUDY    58  52  79 E7        30.12S
FAIRFIELD*     CLOUDY    59  55  84 NE7       30.10S
HARRISBURG*    CLOUDY    59  57  95 CALM      30.11R
ROBINSON*      CLOUDY    57  51  80 E9        30.13S
CARMI*         CLOUDY    59  52  77 E8        30.10S
$$

ABBREVIATIONS USED IN REMARKS
   TC - TEMPERATURE IN CELSIUS
  WCI - WIND CHILL INDEX
   HX - HEAT INDEX
  VSB - VISIBILITY
$$



USA.gov is the U.S. government's official web portal to all federal, state and local government web resources and services.